Volver al catálogo

STARLINK-32471

ActivoComunicacionesVLEO
NORAD 61968·PAYLOAD·🇺🇸 United States

Lanzado Nov 14, 2024 desde Cape Canaveral Space Force Station

Loading…

Próximos Pases (próximas 24 horas)

TLE

ActualizadoSource: CelesTrak SupGP

Época: Sep 14, 2026, 21:30 UTC

1 61968C 24210K   26257.89631944 -.00016903  00000+0 -61220-3 0  2576
2 61968  43.0029 184.1186 0001331 263.1174 310.6976 15.27589203    16

Sigue STARLINK-32471 en tiempo real con AllMySat

Download on the App Store